Atlanta Dekalb, GA

8:48 PM EST on December 15, 2017 (GMT -0500)
Dekalb-Peachtree

Weather History for KPDK - June, 2014

Change the Weather History Date:

Saturday, June 7, 2014

  Actual Average Record
Temperature  
Mean Temperature 79 °F 75 °F  
Max Temperature 89 °F 85 °F 95 °F (2008)
Min Temperature 68 °F 65 °F -56 °F (2007)
Cooling Degree Days 14 10  
Month to date cooling degree days 78 66  
Year to date cooling degree days 295 277  
Since 1 June cooling degree days 78 66  
Growing Degree Days 28 (Base 50)    
Moisture  
Dew Point 65 °F    
Average Humidity 67    
Maximum Humidity 90    
Minimum Humidity 43    
Precipitation  
Precipitation 0.00 in 0.14 in 1.48 in (2003)
Month to date precipitation 0.11 0.93  
Year to date precipitation 18.99 23.42  
Sea Level Pressure  
Sea Level Pressure 29.93 in    
Wind  
Wind Speed 4 mph (NW)    
Max Wind Speed 12 mph    
Max Gust Speed 21 mph    
Visibility 10 miles    
Events      
T = Trace of Precipitation, MM = Missing Value Source: NWS Daily Summary

Daily Weather History Graph

Daily Weather History Graph

Search for Another Location

Airport or City:

Trip Planner

Search our weather history database for the weather conditions in past years. The results will help you decide how hot, cold, wet, or windy it might be!

Date:

Astronomy

Jun. 07, 2014 Rise Set
Actual Time 6:26 AM EDT 8:46 PM EDT
Civil Twilight 5:57 AM EDT 9:15 PM EDT
Nautical Twilight 5:21 AM EDT 9:50 PM EDT
Astronomical Twilight 4:43 AM EDT 10:29 PM EDT
Moon 3:17 PM EDT (6/7) 2:31 AM EDT (6/7)
Length of Visible Light 15h 18m
Length of Day
14h 20m
Waxing Gibbous, 67% of the Moon is Illuminated
Jun 7
Waxing Gibbous
Jun 13
Full
Jun 19
Last Quarter
Jun 27
New
Jul 5
First Quarter

Hourly Weather History & Observations

Time (EDT) Temp. Heat Index Dew Point Humidity Pressure Visibility Wind Dir Wind Speed Gust Speed Precip Events Conditions
12:53 AM 70.0 °F - 64.0 °F 81% 29.88 in 10.0 mi NW 3.5 mph - N/A   Clear
1:53 AM 69.1 °F - 64.9 °F 87% 29.88 in 10.0 mi West 4.6 mph - N/A   Clear
2:53 AM 69.1 °F - 64.0 °F 84% 29.88 in 10.0 mi WNW 5.8 mph - N/A   Clear
3:53 AM 68.0 °F - 64.0 °F 87% 29.88 in 10.0 mi NW 4.6 mph - N/A   Clear
4:24 AM 68.0 °F - 64.4 °F 88% 29.94 in 10.0 mi West 6.9 mph - N/A   Scattered Clouds
4:34 AM 68.0 °F - 64.4 °F 88% 29.95 in 10.0 mi West 5.8 mph - N/A   Mostly Cloudy
4:53 AM 68.0 °F - 64.4 °F 88% 29.95 in 9.0 mi NNW 5.8 mph - N/A   Overcast
5:53 AM 69.1 °F - 66.0 °F 90% 29.94 in 8.0 mi Variable 6.9 mph - N/A   Overcast
6:53 AM 70.0 °F - 66.0 °F 87% 29.95 in 6.0 mi NNW 8.1 mph - N/A   Mostly Cloudy
7:00 AM 69.8 °F - 66.2 °F 88% 29.99 in 7.0 mi NNW 4.6 mph - N/A   Mostly Cloudy
7:53 AM 71.6 °F - 66.2 °F 83% 29.99 in 8.0 mi NNW 6.9 mph - N/A   Clear
8:53 AM 75.2 °F - 68.0 °F 78% 30.00 in 9.0 mi NNW 4.6 mph - N/A   Clear
9:53 AM 79.0 °F - 66.9 °F 66% 29.96 in 10.0 mi North 3.5 mph - N/A   Scattered Clouds
10:26 AM 80.6 °F 82.7 °F 66.2 °F 61% 30.01 in 10.0 mi NNW 4.6 mph - N/A   Mostly Cloudy
10:53 AM 80.1 °F 82.1 °F 66.0 °F 62% 29.96 in 10.0 mi NW 4.6 mph - N/A   Scattered Clouds
11:53 AM 82.9 °F 85.4 °F 66.9 °F 58% 29.96 in 10.0 mi North 6.9 mph - N/A   Partly Cloudy
12:53 PM 84.0 °F 86.3 °F 66.0 °F 55% 29.95 in 10.0 mi Calm Calm - N/A   Partly Cloudy
1:53 PM 84.9 °F 86.6 °F 64.9 °F 51% 29.94 in 10.0 mi Calm Calm - N/A   Scattered Clouds
2:53 PM 84.9 °F 86.6 °F 64.9 °F 51% 29.91 in 10.0 mi West 4.6 mph - N/A   Mostly Cloudy
3:53 PM 87.1 °F 88.3 °F 64.0 °F 46% 29.90 in 10.0 mi WNW 8.1 mph - N/A   Scattered Clouds
4:53 PM 87.1 °F 87.8 °F 63.0 °F 44% 29.89 in 10.0 mi West 6.9 mph - N/A   Clear
5:53 PM 87.1 °F 87.5 °F 62.1 °F 43% 29.88 in 10.0 mi NW 6.9 mph - N/A   Clear
6:53 PM 84.9 °F 86.1 °F 64.0 °F 49% 29.88 in 10.0 mi WNW 5.8 mph - N/A   Clear
7:53 PM 82.9 °F 85.0 °F 66.0 °F 56% 29.89 in 10.0 mi West 5.8 mph - N/A   Clear
8:53 PM 81.0 °F 83.0 °F 66.0 °F 60% 29.89 in 10.0 mi WSW 3.5 mph - N/A   Clear
9:53 PM 77.0 °F - 66.0 °F 69% 29.89 in 10.0 mi Calm Calm - N/A   Clear
10:53 PM 73.9 °F - 66.9 °F 79% 29.92 in 10.0 mi Calm Calm - N/A   Clear
11:53 PM 73.0 °F - 66.9 °F 81% 29.92 in 10.0 mi Calm Calm - N/A   Clear